Torna al catalogo

SL-8 DEB

AttivoLEO
NORAD 21405·DEBRIS·🇷🇺 Russia

Lanciato Feb 12, 1991 da Plesetsk Cosmodrome

Loading…

Prossimi Passaggi (prossime 24 ore)

TLE

AggiornatoSource: Space-Track

Epoca: Sep 13, 2026, 18:55 UTC

1 21405U 91009BU  26256.78875340  .00000068  00000-0  76285-3 0  9999
2 21405  73.9609  31.6942 0227146 298.7824 179.3266 12.18872832578742

Traccia SL-8 DEB in tempo reale con AllMySat

Download on the App Store